Location: Santaluz Observatory
(32.9930°N, 117.1510°W)
Time: 02:24:51
(UTC-08:00)

Daily predictions for brighter satellites

Satellite Brightness Start Highest point End
(mag) Time Altitude Azimuth Time Altitude Azimuth Time Altitude Azimuth
Cosmos 1943 Rocket 4.4 03:09:50 20° ENE 03:09:50 20° ENE 03:11:49 10° NE
ATLAS CENTAUR R/B 4.3 03:15:18 42° NNE 03:16:28 45° NE 03:30:46 10° SE
CZ-4C R/B 4.3 03:18:41 19° ESE 03:18:41 19° ESE 03:22:08 10° ENE
Lacrosse 5 3.6 03:49:14 27° NNE 03:49:14 27° NNE 03:51:32 10° NE
ADEOS II 3.9 03:46:23 10° NNE 03:48:14 23° NNE 03:48:14 23° NNE
USA 234 3.3 03:51:47 10° NE 03:57:37 61° NNW 03:57:37 61° NNW
Cosmos 2369 Rocket 4.1 04:07:22 18° N 04:07:22 18° N 04:08:54 10° N
Cosmos 1656 Rocket 4.2 04:10:17 27° S 04:13:16 57° ESE 04:18:50 10° NNE
Cosmos 407 Rocket 4.1 04:08:27 11° N 04:13:31 57° ENE 04:18:43 10° SSE
OAO 1 Rocket 4.3 04:24:47 77° SW 04:25:01 79° SSW 04:30:23 10° ESE
Nadezhda 2 Rocket 4.3 04:19:09 10° N 04:25:16 89° ENE 04:31:25 10° S
GEOS 3 Rocket 3.4 04:24:58 10° SSE 04:30:02 77° WSW 04:31:07 56° NW
Cosmos 1833 4.4 04:25:06 10° NNW 04:30:41 68° ENE 04:36:14 10° SSE
Okean 1-7 3.4 04:29:26 10° S 04:33:38 61° E 04:37:51 10° NNE
Tiangong 1 3.4 04:39:12 17° NNE 04:39:12 17° NNE 04:40:14 10° NE
Cosmos 1190 Rocket 3.9 04:37:58 30° NNW 04:40:31 65° WSW 04:45:44 10° S
Sich 1 Rocket 3.5 04:36:51 10° NNW 04:41:21 67° W 04:45:47 10° S
Cosmos 1908 Rocket 3.4 04:39:02 10° NNW 04:43:29 67° W 04:47:53 10° S
Cosmos 1417 Rocket 4.4 04:37:53 10° S 04:44:05 84° W 04:50:16 10° N
ATLAS 5 CENTAUR R/B 3.6 04:45:45 18° NNW 04:45:45 18° NNW 04:48:05 10° N
Meteor 2-10 Rocket 3.3 04:43:41 22° SSW 04:46:53 62° W 04:51:52 10° N
Cosmos 1782 Rocket 3.7 04:44:34 10° N 04:49:03 78° E 04:53:28 10° S
Cosmos 1943 Rocket 3.2 04:51:24 27° NW 04:51:24 27° NW 04:55:20 10° N
Okean-O 2.8 04:46:35 10° N 04:50:50 46° WNW 04:50:58 46° W
Cosmos 1782 3.8 04:50:10 10° SSE 04:53:58 48° E 04:57:48 10° NNE
SKYMED 2 4.3 04:51:41 10° SSE 04:55:54 54° ENE 05:00:09 10° N
Radarsat Rocket 4.3 04:49:42 10° NNE 04:56:50 82° ESE 05:03:06 10° SSW
Meteor 1-14 Rocket 4.1 04:59:31 10° NNW 05:05:18 74° W 05:10:55 10° S
CZ-4C R/B 2.4 05:03:56 27° WSW 05:06:19 44° NW 05:11:49 10° NNE
Cosmos 1954 Rocket 3.9 05:02:15 10° NNW 05:07:34 80° WSW 05:12:53 10° SSE
Cosmos 1420 Rocket 4.0 05:04:33 10° SSW 05:09:39 59° WNW 05:14:46 10° N
Cosmos 1606 3.4 05:06:12 10° S 05:09:58 58° E 05:13:48 10° NNE
NOAA 6 4.1 05:06:49 10° N 05:11:51 54° WNW 05:16:49 10° SSW
Okean 2 Rocket 2.9 05:07:39 10° N 05:12:02 78° W 05:16:25 10° S
Ariane Rocket 3.6 05:07:11 10° NNE 05:12:13 59° ESE 05:17:11 10° S
Thor Agena Rocket 4.0 05:17:23 10° SSW 05:22:14 39° W 05:27:05 10° NNW
Meteor 2-6 Rocket 4.2 05:18:39 10° S 05:24:02 84° E 05:29:27 10° N
Lacrosse 5 3.8 05:28:28 12° NW 05:30:11 13° NNW 05:32:39 10° N
Delta 2 Rocket 3.8 05:27:00 17° W 05:30:51 82° NNW 05:36:22 10° ENE
Cosmos 2151 Rocket 3.8 05:26:43 10° N 05:31:14 77° E 05:35:41 10° S
S3M 4.3 05:25:56 10° SSW 05:31:56 44° W 05:37:55 10° N
CZ-4 R/B 3.2 05:29:24 10° NNE 05:33:14 37° E 05:37:01 10° SSE
Meteor 1-25 Rocket 4.4 05:29:23 10° NNW 05:35:06 57° W 05:40:48 10° S
Cosmos 1607 3.9 05:29:49 10° SSW 05:35:55 77° WNW 05:42:05 10° NNE
USA 238 DEB 4.2 05:31:18 10° SSW 05:38:13 69° ESE 05:45:11 10° NE
USA 238 4.2 05:31:23 10° SSW 05:38:18 68° ESE 05:45:17 10° NE
Cosmos 1110 Rocket 4.2 05:37:37 10° S 05:42:46 76° ESE 05:47:55 10° NNE
COSMO-SKYMED 1 3.1 05:39:56 10° SSW 05:43:56 37° W 05:47:58 10° NNW
CSL-04 Debris 4.2 05:38:34 10° NNE 05:43:59 89° ESE 05:49:21 10° SSW
Gblst 52 Del rocket 4.4 05:38:25 10° SW 05:44:05 87° SE 05:50:27 10° NE
Cosmos 2219 3.2 05:42:24 10° NNW 05:48:00 63° WSW 05:53:32 10° S
Cosmos 1741 Rocket 4.0 05:45:01 10° NNW 05:50:14 71° WSW 05:55:27 10° S
Meteor 1-10 Rocket 4.5 05:46:38 10° SSW 05:51:54 45° WNW 05:57:16 10° N
Meteor 1-11 Rocket 4.3 05:48:07 10° N 05:54:03 70° E 05:59:52 10° SSE
Cosmos 2227 Rocket 3.6 05:49:27 10° N 05:54:48 41° ENE 06:00:07 10° SE
CSL-04 DEB 4.3 05:54:43 10° NNE 05:58:42 86° W 06:02:36 10° SSW
